Location: Seven Kings
(51.5667°N, 0.1000°E)
Time: 05:11:06
(UTC+00:00)

USA 306 - Pass Details

Date: 29 October 2020
Orbit: 569 x 577 km, 54.0° (Epoch: 22 November)

Event Time Altitude Azimuth Distance (km) Brightness Sun altitude
Rises 17:54:22 0° 291° (WNW) 2,788 7.6 -12.5°
Reaches altitude 10° 17:56:39 10° 289° (WNW) 1,886 6.6 -12.8°
Maximum altitude 18:00:53 65° 208° (SSW) 634 3.2 -13.5°
Enters shadow 18:04:26 14° 128° (SE) 1,608 4.8 -14.0°
